Regional Weather Roundup
Issued by NWS

Home | Current Version | Previous Version | Text Only | Print | Product List | Glossary On
Versions: 1 2 3 4 5 6 7 8 9 10 11 12 13 14 15 16 17 18 19 20 21 22 23 24 25 26 27 28
000
ASCA42 TJSJ 190410
RWRPR
PUERTO RICO/U.S. VIRGIN ISLANDS HOURLY WEATHER ROUNDUP
NATIONAL WEATHER SERVICE SAN JUAN PR
1200 AM AST THU OCT 19 2017

PRZ001>002-007>008-010-190500-
PUERTO RICO

CITY           SKY/WX    TMP DP  RH WIND       PRES   REMARKS
SAN JUAN LMM   PTCLDY    82  79  89 E12       30.02S HX  93
PONCE          MOCLDY    77  70  78 VRB2      30.00S FOG
AGUADILLA      CLEAR     77  73  88 E7        30.03S
$$

VIZ001>002-190500-
U.S. VIRGIN ISLANDS

CITY           SKY/WX    TMP DP  RH WIND       PRES   REMARKS
CHARLOTTE AMA    N/A     84  72  65 VRB7      30.01F
$$

HOURLY WEATHER ROUNDUP FOR THE NEWS MEDIA

CITY           SKY/WX    TMP DP  RH WIND       PRES   REMARKS
NEW YORK       CLEAR     58  52  80 SW7       30.29F
NEWARK         CLEAR     58  47  66 SW8       30.28F
CHICAGO        PTCLDY    63  43  48 SW14      30.05R
HARTFORD       CLEAR     48  47  96 CALM      30.27F
BOSTON         CLEAR     55  47  74 S8        30.26F
DALLAS         MOCLDY    70  45  40 SE14      30.11R
PHILADELPHIA   CLEAR     58  48  69 SW8       30.31S
LOS ANGELES    CLEAR     69  59  70 W13       29.90R
WASHINGTON DC  PTCLDY    46  44  93 CALM      30.30F



USA.gov is the U.S. government's official web portal to all federal, state and local government web resources and services.